1488254401.07,59090,6.13,72376.5,-4.11,-35.01,-35.29,0,*5B
1488254402.3,59091,6.13,72388.8,-4.11,-35.29,-35.59,0,*57
1488254403.51,59092,6.13,72394.3,-4.09,-35.47,-35.71,0,*5F
1488254404.75,59093,6.13,72394.0,-4.11,-35.47,-35.77,0,*51
1488254406.01,59094,6.13,72390.3,-4.11,-35.35,-35.71,0,*55
1488254407.25,59095,6.13,72390.0,-4.11,-35.47,-35.77,0,*57
1488254408.52,59096,6.19,72396.0,-4.11,-35.59,-35.95,0,*57
1488254409.79,59097,6.13,72384.3,-4.11,-35.59,-35.95,0,*56
1488254411.01,59098,6.13,72388.8,-4.13,-35.29,-35.47,0,*53
1488254412.23,59099,6.13,72358.5,-4.13,-35.29,-35.59,0,*5D
1488254413.45,59100,6.19,72380.3,-4.13,-35.47,-35.77,0,*58
1488254414.71,59101,6.13,72348.3,-4.15,-35.41,-35.77,0,*59
1488254416.0,59102,6.19,72390.3,-4.15,-35.23,-35.65,0,*5D
1488254417.24,59103,6.13,72390.0,-4.13,-35.17,-35.65,0,*5D
1488254418.46,59104,6.13,72392.5,-4.13,-35.29,-35.59,0,*58
1488254419.7,59105,6.13,72392.3,-4.15,-35.17,-35.77,0,*5E
1488254420.99,59106,6.13,72394.3,-4.15,-35.35,-35.65,0,*5E
1488254422.23,59107,6.13,72390.5,-4.11,-35.01,-35.17,0,*59
1488254423.5,59108,6.13,72356.5,-4.13,-34.35,-34.65,0,*56
1488254424.76,59109,6.13,72336.0,-4.11,-35.13,-35.35,0,*54
1488254425.98,59110,6.13,72356.3,-4.13,-35.29,-35.59,0,*5D
1488254427.27,59111,6.13,72366.8,-4.15,-35.07,-35.35,0,*5C
1488254428.52,59112,6.13,72352.0,-4.13,-34.83,-35.01,0,*53
1488254429.79,59113,6.19,72374.8,-4.11,-34.83,-35.01,0,*50
1488254431.04,59114,6.13,72366.5,-4.13,-34.65,-35.01,0,*5D
1488254432.29,59115,6.13,72380.3,-4.13,-34.95,-35.29,0,*59
1488254433.51,59116,6.13,72382.8,-4.13,-35.13,-35.47,0,*5D
1488254434.8,59117,6.13,72392.3,-4.11,-34.65,-34.95,0,*50
1488254436.06,59118,6.13,72408.5,-4.13,-34.95,-35.29,0,*54
1488254437.27,59119,6.13,72422.5,-4.13,-35.17,-35.47,0,*56
1488254438.49,59120,6.13,72424.5,-4.13,-35.13,-35.29,0,*50
1488254439.76,59121,6.13,72432.5,-4.11,-35.01,-35.35,0,*5D
1488254441.0,59122,6.19,72442.0,-4.11,-35.29,-35.59,0,*5E
1488254442.22,59123,6.13,72428.5,-4.13,-35.29,-35.47,0,*52
1488254443.43,59124,6.13,72422.3,-4.13,-35.17,-35.47,0,*58
1488254444.65,59125,6.13,72420.3,-4.13,-35.47,-35.59,0,*53
1488254445.93,59126,6.13,72420.8,-4.15,-35.53,-35.83,0,*54
1488254447.18,59127,6.13,72436.0,-4.13,-35.35,-35.77,0,*58
1488254448.4,59128,6.13,72424.0,-4.13,-35.01,-35.17,0,*56
1488254449.64,59129,6.13,72418.8,-4.13,-35.13,-35.35,0,*54
1488254450.92,59130,6.13,72414.5,-4.15,-35.35,-35.65,0,*5B
1488254452.14,59131,6.19,72436.0,-4.13,-35.13,-35.47,0,*58
1488254453.37,59132,6.13,72422.3,-4.13,-35.01,-35.29,0,*50
1488254454.61,59133,6.13,72428.0,-4.13,-34.95,-35.17,0,*50
1488254455.84,59134,6.13,72432.5,-4.13,-35.01,-35.29,0,*56
1488254457.08,59135,6.13,72444.8,-4.13,-34.83,-35.17,0,*51
1488254458.38,59136,6.13,72446.8,-4.15,-35.07,-35.41,0,*5A
1488254459.6,59137,6.13,72444.8,-4.13,-35.29,-35.59,0,*58
1488254460.84,59138,6.13,72434.0,-4.13,-35.13,-35.35,0,*54
1488254462.12,59139,6.13,72438.0,-4.15,-35.35,-35.65,0,*52
1488254463.34,59140,6.13,72460.3,-4.13,-35.13,-35.29,0,*56
1488254464.63,59141,6.13,72424.8,-4.15,-35.07,-35.23,0,*5E
1488254465.86,59142,6.13,72414.8,-4.13,-34.77,-35.13,0,*5E
1488254467.1,59143,6.13,72406.8,-4.13,-34.83,-35.17,0,*50
1488254468.35,59144,6.13,72396.8,-4.13,-34.95,-35.29,0,*5D
1488254469.6,59145,6.13,72376.5,-4.13,-35.01,-35.35,0,*5D
1488254470.84,59146,6.13,72318.8,-4.13,-35.35,-35.59,0,*53
1488254472.1,59147,6.13,72284.0,-4.15,-35.53,-35.77,0,*58
1488254473.37,59148,6.13,72328.0,-4.15,-35.53,-35.77,0,*57
1488254474.63,59149,6.13,72358.8,-4.15,-35.35,-35.77,0,*56
1488254475.86,59150,6.13,72338.5,-4.13,-35.01,-35.17,0,*59
1488254477.1,59151,6.13,72340.3,-4.13,-34.77,-34.95,0,*53
1488254478.36,59152,6.13,72358.8,-4.13,-34.95,-35.29,0,*5A
1488254479.57,59153,6.13,72370.0,-4.13,-35.17,-35.47,0,*58
1488254480.81,59154,6.13,72374.5,-4.11,-35.01,-35.17,0,*5F
1488254482.03,59155,6.13,72366.3,-4.13,-35.01,-35.17,0,*5C
1488254483.26,59156,6.13,72350.3,-4.13,-35.01,-35.13,0,*5B
1488254484.48,59157,6.13,72360.8,-4.13,-35.01,-35.13,0,*5A
1488254485.71,59158,6.13,72360.8,-4.13,-35.01,-35.13,0,*55
1488254486.93,59159,6.13,72364.0,-4.13,-35.01,-35.13,0,*54
1488254488.15,59160,6.13,72370.3,-4.13,-35.01,-35.17,0,*5A
1488254489.37,59161,6.13,72384.0,-4.13,-35.01,-35.17,0,*5B
1488254490.63,59162,6.13,72392.3,-4.11,-35.35,-35.59,0,*57
1488254491.86,59163,6.13,72388.8,-4.09,-35.35,-35.59,0,*5F
1488254493.12,59164,6.13,72386.8,-4.11,-35.53,-35.77,0,*5D
1488254494.39,59165,6.13,72388.3,-4.11,-35.71,-35.95,0,*50
1488254495.62,59166,6.13,72392.8,-4.11,-35.59,-35.71,0,*53
1488254496.86,59167,6.19,72402.8,-4.13,-35.35,-35.71,0,*5A
1488254498.12,59168,6.13,72400.8,-4.15,-35.35,-35.77,0,*55
1488254499.36,59169,6.13,72402.0,-4.13,-35.35,-35.59,0,*5E
1488254500.58,59170,6.13,72370.5,-4.13,-35.17,-35.47,0,*59
1488254501.82,59171,6.13,72358.5,-4.13,-35.13,-35.35,0,*59
1488254503.07,59172,6.13,72338.5,-4.13,-35.01,-35.35,0,*59
1488254504.28,59173,6.13,72318.8,-4.13,-35.17,-35.59,0,*55
1488254505.5,59174,6.13,72312.5,-4.13,-35.29,-35.47,0,*50
1488254506.72,59175,6.13,72320.5,-4.13,-35.01,-35.17,0,*5E
1488254507.95,59176,6.13,72332.3,-4.13,-35.01,-35.29,0,*50
1488254509.22,59177,6.13,72332.8,-4.11,-34.83,-35.13,0,*51
1488254510.47,59178,6.13,72344.3,-4.13,-34.95,-35.01,0,*58
1488254511.69,59179,6.13,72348.0,-4.13,-34.47,-34.59,0,*5A
1488254512.93,59180,6.13,72378.8,-4.13,-34.95,-35.17,0,*58
1488254514.19,59181,6.13,72390.5,-4.11,-35.17,-35.35,0,*50
1488254515.45,59182,6.13,72392.0,-4.11,-35.17,-35.35,0,*53
1488254516.67,59183,6.13,72394.5,-4.13,-35.17,-35.47,0,*55
1488254517.89,59184,6.13,72398.8,-4.13,-35.29,-35.47,0,*5F
1488254519.11,59185,6.13,72408.8,-4.13,-35.29,-35.47,0,*5E
1488254520.32,59186,6.19,72416.5,-4.13,-35.47,-35.59,0,*5A
1488254521.54,59187,6.13,72416.3,-4.13,-35.47,-35.71,0,*51
1488254522.75,59188,6.13,72418.5,-4.13,-35.47,-35.71,0,*5E
1488254524.04,59189,6.13,72418.8,-4.15,-35.41,-35.53,0,*5F
1488254525.28,59190,6.13,72420.3,-4.13,-35.13,-35.35,0,*56
1488254526.52,59191,6.13,72424.3,-4.13,-35.29,-35.35,0,*5E
1488254527.81,59192,6.13,72434.8,-4.15,-35.35,-35.53,0,*56
1488254529.02,59193,6.13,72428.3,-4.13,-35.47,-35.71,0,*54
1488254530.32,59194,6.13,72418.0,-4.15,-35.65,-35.95,0,*5F
1488254531.61,59195,6.13,72412.3,-4.15,-35.23,-35.53,0,*56
1488254532.87,59196,6.13,72422.8,-4.15,-35.17,-35.41,0,*51
1488254534.13,59197,6.13,72438.0,-4.15,-35.59,-35.83,0,*54
1488254535.42,59198,6.19,72444.0,-4.15,-35.41,-35.65,0,*5A
1488254536.71,59199,6.13,72442.5,-4.15,-35.07,-35.35,0,*5C
1488254537.98,59200,6.13,72420.8,-4.15,-35.07,-35.17,0,*5F
1488254539.2,59201,6.13,72402.5,-4.13,-35.01,-35.17,0,*5E
1488254540.46,59202,6.13,72418.8,-4.15,-35.17,-35.35,0,*5C
1488254541.69,59203,6.13,72392.0,-4.13,-35.01,-35.29,0,*51
1488254542.98,59204,6.13,72394.8,-4.15,-35.07,-35.23,0,*5C
1488254544.24,59205,6.13,72394.0,-4.15,-34.89,-35.07,0,*5C
1488254545.51,59206,6.13,72384.5,-4.15,-34.83,-35.01,0,*53
1488254546.76,59207,6.13,72386.5,-4.15,-34.89,-35.01,0,*58
1488254548.0,59208,6.13,72444.5,-4.15,-35.01,-35.17,0,*51
1488254549.24,59209,6.13,72434.5,-4.15,-35.01,-35.17,0,*50
1488254550.49,59210,6.13,72404.0,-4.15,-35.01,-35.17,0,*58
1488254551.74,59211,6.13,72386.5,-4.13,-34.95,-35.13,0,*57
1488254553.0,59212,6.13,72410.8,-4.15,-35.17,-35.41,0,*5E
1488254554.29,59213,6.13,72446.0,-4.15,-35.23,-35.41,0,*58
1488254555.52,59214,6.13,72406.3,-4.13,-35.01,-35.01,0,*5D
1488254556.75,59215,6.13,72390.5,-4.15,-34.89,-34.89,0,*5A
1488254558.0,59216,6.13,72378.8,-4.13,-34.95,-35.01,0,*53
1488254559.25,59217,6.13,72384.8,-4.13,-34.65,-34.77,0,*5D
1488254560.5,59218,6.13,72430.0,-4.13,-34.77,-34.95,0,*5D
1488254561.71,59219,6.13,72406.0,-4.13,-35.13,-35.17,0,*54
1488254562.96,59220,6.13,72390.8,-4.13,-34.95,-35.01,0,*56
1488254564.23,59221,6.13,72408.3,-4.13,-34.95,-34.83,0,*5C
1488254565.45,59222,6.13,72418.5,-4.13,-35.13,-35.13,0,*58
1488254566.69,59223,6.13,72400.5,-4.11,-35.01,-35.13,0,*58
1488254567.91,59224,6.13,72406.8,-4.13,-35.13,-35.29,0,*57
1488254569.13,59225,6.13,72416.8,-4.13,-35.29,-35.59,0,*58
1488254570.37,59226,6.13,72414.0,-4.11,-35.01,-35.01,0,*5E
1488254571.62,59227,6.13,72418.5,-4.11,-35.29,-35.29,0,*5F
1488254572.86,59228,6.13,72418.0,-4.13,-35.35,-35.47,0,*57
1488254574.07,59229,6.13,72416.0,-4.13,-35.47,-35.59,0,*5C
1488254575.31,59230,6.13,72406.0,-4.13,-35.17,-35.35,0,*5B
1488254576.53,59231,6.13,72416.3,-4.13,-35.13,-35.29,0,*53
1488254577.79,59232,6.19,72408.0,-4.11,-35.17,-35.35,0,*5B
1488254579.08,59233,6.13,72386.3,-4.11,-34.83,-34.95,0,*5D
1488254580.33,59234,6.13,72400.0,-4.13,-34.95,-35.01,0,*53
1488254581.58,59235,6.13,72418.0,-4.11,-35.01,-35.13,0,*5F
1488254582.81,59236,6.13,72426.3,-4.15,-34.89,-34.89,0,*5B
1488254584.06,59237,6.13,72420.3,-4.13,-34.95,-35.01,0,*50
1488254585.33,59238,6.13,72432.3,-4.11,-34.95,-35.13,0,*5E
1488254586.57,59239,6.13,72444.5,-4.11,-35.13,-35.29,0,*59
1488254587.81,59240,6.13,72422.5,-4.11,-35.17,-35.29,0,*53
1488254589.08,59241,6.13,72412.3,-4.13,-34.83,-34.95,0,*5A
1488254590.38,59242,6.13,72418.5,-4.15,-35.07,-35.35,0,*59
1488254591.59,59243,6.13,72420.8,-4.13,-35.13,-35.29,0,*56
1488254592.84,59244,6.13,72430.5,-4.13,-35.35,-35.47,0,*5D
1488254594.07,59245,6.13,72430.5,-4.13,-35.35,-35.59,0,*53
1488254595.29,59246,6.19,72430.8,-4.13,-35.59,-35.77,0,*56
1488254596.54,59247,6.13,72426.5,-4.13,-35.53,-35.89,0,*5C
1488254597.76,59248,6.19,72430.3,-4.13,-35.59,-35.89,0,*59
1488254599.05,59249,6.13,72428.0,-4.15,-35.65,-35.83,0,*5B
1488254600.35,59250,6.13,72426.3,-4.15,-35.83,-35.95,0,*5C
1488254601.64,59251,6.13,72424.8,-4.15,-35.65,-35.95,0,*55
1488254602.86,59252,6.13,72430.0,-4.17,-35.59,-35.77,0,*57
1488254604.1,59253,6.13,72428.5,-4.17,-35.59,-35.83,0,*5D
1488254605.32,59254,6.13,72440.8,-4.17,-35.59,-35.77,0,*51
1488254606.57,59255,6.13,72434.8,-4.17,-35.41,-35.77,0,*59
1488254607.83,59256,6.13,72432.8,-4.17,-35.35,-35.53,0,*5F
1488254609.07,59257,6.13,72430.5,-4.17,-35.17,-35.41,0,*5D
1488254610.33,59258,6.13,72420.0,-4.17,-35.23,-35.35,0,*56
1488254611.57,59259,6.13,72428.5,-4.17,-35.17,-35.35,0,*50
1488254612.81,59260,6.13,72430.8,-4.17,-35.17,-35.23,0,*5D
1488254614.07,59261,6.13,72424.5,-4.17,-35.23,-35.53,0,*5C
1488254615.34,59262,6.13,72430.3,-4.17,-35.35,-35.53,0,*58
1488254616.58,59263,6.13,72410.3,-4.19,-35.47,-35.71,0,*52
1488254617.84,59264,6.13,72422.3,-4.17,-35.35,-35.53,0,*5E
1488254619.1,59265,6.13,72422.3,-4.19,-35.13,-35.41,0,*56
1488254620.38,59266,6.13,72420.8,-4.19,-35.41,-35.65,0,*54
1488254621.63,59267,6.19,72420.8,-4.19,-35.47,-35.47,0,*53
1488254622.89,59268,6.13,72426.0,-4.19,-35.07,-35.17,0,*5D
1488254624.14,59269,6.13,72428.3,-4.17,-35.07,-35.17,0,*52
1488254625.39,59270,6.13,72422.8,-4.15,-35.17,-35.23,0,*5E
1488254626.66,59271,6.13,72430.3,-4.17,-35.35,-35.41,0,*59
1488254627.93,59272,6.13,72406.0,-4.17,-35.23,-35.41,0,*5D
1488254629.19,59273,6.13,72424.0,-4.17,-35.35,-35.41,0,*5B
1488254630.48,59274,6.13,72416.8,-4.15,-35.23,-35.23,0,*5D
1488254631.74,59275,6.13,72422.5,-4.17,-35.07,-35.23,0,*58
1488254632.96,59276,6.13,72396.8,-4.17,-34.89,-34.89,0,*5D
1488254634.2,59277,6.13,72416.3,-4.17,-34.83,-35.01,0,*57
1488254635.47,59278,6.13,72422.3,-4.17,-35.07,-35.23,0,*55
1488254636.74,59279,6.13,72432.5,-4.17,-35.07,-35.35,0,*53
1488254637.98,59280,6.13,72440.0,-4.17,-35.17,-35.35,0,*54
1488254639.24,59281,6.13,72450.3,-4.17,-35.35,-35.41,0,*56
1488254640.51,59282,6.13,72434.5,-4.17,-35.23,-35.41,0,*52
1488254641.8,59283,6.13,72444.5,-4.19,-35.23,-35.41,0,*5D
1488254643.04,59284,6.13,72450.0,-4.17,-35.17,-35.41,0,*53
1488254644.3,59285,6.13,72454.0,-4.19,-35.13,-35.41,0,*58
1488254645.57,59286,6.13,72450.5,-4.17,-35.23,-35.41,0,*56
1488254646.81,59287,6.13,72458.5,-4.19,-35.29,-35.47,0,*55
1488254648.06,59288,6.13,72462.3,-4.19,-35.29,-35.47,0,*5A
1488254649.3,59289,6.13,72452.5,-4.17,-35.17,-35.41,0,*5E
1488254650.57,59290,6.13,72442.0,-4.17,-35.07,-35.07,0,*55
1488254651.8,59291,6.13,72448.0,-4.17,-35.17,-35.35,0,*54
1488254653.06,59292,6.13,72448.5,-4.19,-35.41,-35.71,0,*5A
1488254654.3,59293,6.13,72446.3,-4.19,-35.47,-35.71,0,*5D
1488254655.59,59294,6.13,72440.5,-4.19,-35.23,-35.41,0,*5B
1488254656.85,59295,6.13,72450.3,-4.19,-34.89,-35.07,0,*59
1488254658.12,59296,6.13,72448.5,-4.19,-35.07,-35.13,0,*58
1488254659.42,59297,6.13,72454.3,-4.19,-35.07,-35.07,0,*5C
1488254660.64,59298,6.13,72464.8,-4.17,-35.01,-35.17,0,*5A
1488254661.92,59299,6.13,72468.3,-4.19,-35.23,-35.41,0,*56
1488254663.17,59300,6.13,72478.3,-4.19,-35.13,-35.29,0,*5A
1488254664.41,59301,6.13,72454.8,-4.19,-34.89,-34.77,0,*53
1488254665.63,59302,6.13,72430.0,-4.17,-34.89,-35.01,0,*5E
1488254666.84,59303,6.13,72446.8,-4.17,-34.89,-35.01,0,*5F
1488254668.06,59304,6.13,72442.5,-4.17,-34.89,-35.01,0,*58
1488254669.31,59305,6.13,72448.0,-4.17,-35.01,-35.07,0,*5E
1488254670.58,59306,6.13,72452.5,-4.17,-35.07,-35.23,0,*5D
1488254671.82,59307,6.13,72422.3,-4.17,-35.07,-35.17,0,*5B
1488254673.06,59308,6.13,72392.3,-4.17,-34.89,-35.07,0,*52
1488254674.3,59309,6.13,72400.3,-4.17,-35.17,-35.41,0,*57
1488254675.54,59310,6.13,72418.3,-4.17,-35.07,-35.17,0,*5D
1488254676.75,59311,6.13,72400.0,-4.17,-34.89,-34.89,0,*5D
1488254678.0,59312,6.13,72416.8,-4.15,-35.01,-35.01,0,*5C
1488254679.27,59313,6.13,72422.0,-4.15,-34.89,-35.07,0,*5A
1488254680.53,59314,6.13,72406.0,-4.15,-34.89,-35.07,0,*5D
1488254681.77,59315,6.13,72404.8,-4.15,-34.71,-34.89,0,*5C
1488254683.07,59316,6.13,72410.0,-4.15,-34.65,-34.83,0,*50
1488254684.33,59317,6.13,72414.3,-4.15,-34.71,-34.83,0,*54
1488254685.6,59318,6.13,72426.8,-4.15,-35.01,-35.07,0,*50
1488254686.84,59319,6.13,72432.3,-4.15,-34.89,-35.17,0,*51
1488254688.11,59320,6.13,72422.0,-4.13,-34.83,-34.95,0,*5C
1488254689.36,59321,6.13,72442.3,-4.15,-35.01,-35.17,0,*5B
1488254690.6,59322,6.13,72440.8,-4.13,-34.95,-35.17,0,*52
1488254691.89,59323,6.13,72444.3,-4.15,-35.07,-35.23,0,*58
1488254693.16,59324,6.13,72434.8,-4.15,-35.07,-35.17,0,*58
1488254694.42,59325,6.13,72424.0,-4.15,-34.89,-35.07,0,*5F
1488254695.67,59326,6.13,72440.3,-4.13,-34.83,-35.01,0,*56
1488254696.92,59327,6.13,72434.0,-4.13,-34.95,-35.17,0,*57
1488254698.16,59328,6.13,72438.5,-4.13,-35.01,-35.07,0,*55
1488254699.43,59329,6.19,72426.8,-4.15,-34.71,-34.83,0,*59
1488254700.71,59330,6.13,72426.0,-4.15,-34.95,-35.01,0,*50
1488254701.98,59331,6.13,72432.0,-4.15,-35.01,-35.07,0,*5B
1488254703.27,59332,6.13,72436.0,-4.15,-35.07,-35.23,0,*58
1488254704.51,59333,6.13,72444.0,-4.13,-34.95,-35.17,0,*52
1488254705.76,59334,6.13,72448.8,-4.13,-34.95,-35.17,0,*55
1488254706.99,59335,6.13,72454.0,-4.15,-34.89,-35.17,0,*5F
1488254708.24,59336,6.13,72448.3,-4.13,-34.95,-35.17,0,*57
1488254709.51,59337,6.13,72454.0,-4.15,-35.01,-35.07,0,*5D
1488254710.76,59338,6.13,72444.8,-4.13,-34.95,-35.13,0,*5D
1488254712.02,59339,6.13,72470.8,-4.15,-35.17,-35.23,0,*52
1488254713.26,59340,6.13,72460.8,-4.13,-35.13,-35.35,0,*59
1488254714.48,59341,6.13,72458.8,-4.13,-35.01,-35.13,0,*5F
1488254715.77,59342,6.13,72476.5,-4.15,-35.23,-35.41,0,*5D
1488254716.99,59343,6.13,72468.5,-4.13,-35.29,-35.47,0,*56
1488254718.22,59344,6.13,72444.3,-4.13,-35.01,-35.29,0,*53
1488254719.51,59345,6.13,72422.3,-4.15,-35.07,-35.23,0,*58
1488254720.78,59346,6.13,72442.3,-4.15,-35.01,-35.23,0,*5D
1488254722.07,59347,6.13,72428.3,-4.15,-35.23,-35.41,0,*58
1488254723.29,59348,6.13,72432.0,-4.13,-35.01,-35.29,0,*5F
1488254724.51,59349,6.13,72460.0,-4.13,-35.29,-35.47,0,*5C
1488254725.77,59350,6.13,72400.5,-4.13,-34.95,-35.01,0,*50
1488254727.0,59351,6.13,72408.8,-4.15,-34.89,-35.17,0,*5D
1488254728.22,59352,6.13,72404.5,-4.13,-35.01,-35.17,0,*59
1488254729.48,59353,6.13,72404.5,-4.15,-35.17,-35.35,0,*59
1488254730.73,59354,6.13,72412.0,-4.15,-35.01,-35.17,0,*59
1488254731.94,59355,6.13,72414.0,-4.13,-35.13,-35.17,0,*5D
1488254733.2,59356,6.13,72436.0,-4.15,-35.17,-35.65,0,*59
1488254734.42,59357,6.13,72426.0,-4.13,-35.01,-35.17,0,*5C
1488254735.71,59358,6.13,72424.5,-4.15,-35.35,-35.53,0,*52
1488254736.95,59359,6.13,72424.5,-4.15,-34.89,-35.01,0,*52
1488254738.22,59360,6.13,72444.8,-4.15,-35.01,-35.23,0,*59
1488254739.49,59361,6.13,72434.3,-4.13,-34.83,-34.95,0,*59
1488254740.74,59362,6.13,72436.5,-4.15,-35.01,-35.17,0,*5C
1488254742.0,59363,6.13,72444.8,-4.15,-35.01,-35.07,0,*5C
1488254743.27,59364,6.13,72448.5,-4.15,-35.17,-35.53,0,*5D
1488254744.53,59365,6.13,72432.8,-4.15,-34.83,-34.89,0,*56
1488254745.77,59366,6.13,72452.8,-4.11,-35.13,-35.17,0,*5F
1488254747.06,59367,6.13,72444.8,-4.15,-35.07,-35.23,0,*58
1488254748.35,59368,6.13,72442.5,-4.15,-35.07,-35.23,0,*57
1488254749.61,59369,6.13,72422.8,-4.15,-35.17,-35.65,0,*55
1488254750.9,59370,6.13,72416.0,-4.15,-35.23,-35.53,0,*5F
1488254752.18,59371,6.13,72442.5,-4.15,-35.41,-35.65,0,*5F
1488254753.42,59372,6.13,72466.5,-4.17,-35.53,-35.77,0,*5E
1488254754.68,59373,6.13,72474.8,-4.15,-35.17,-35.23,0,*5C
1488254755.97,59374,6.13,72418.5,-4.15,-34.83,-35.07,0,*51
1488254757.24,59375,6.13,72458.3,-4.15,-35.01,-35.07,0,*5B
1488254758.51,59376,6.13,72448.0,-4.15,-34.83,-35.01,0,*55
1488254759.76,59377,6.13,72434.0,-4.15,-34.71,-34.89,0,*58
1488254761.01,59378,6.13,72444.0,-4.13,-34.83,-35.01,0,*5D
1488254762.28,59379,6.13,72408.3,-4.15,-34.65,-34.71,0,*54
1488254763.56,59380,6.13,72428.5,-4.15,-34.47,-34.65,0,*57
1488254764.86,59381,6.13,72444.5,-4.15,-34.53,-34.65,0,*53
1488254766.1,59382,6.13,72454.5,-4.13,-34.77,-34.83,0,*58
1488254767.35,59383,6.13,72420.0,-4.13,-34.65,-34.77,0,*51
1488254768.62,59384,6.13,72448.0,-4.15,-34.53,-34.71,0,*53
1488254769.86,59385,6.13,72416.8,-4.13,-34.77,-34.83,0,*5F
1488254771.13,59386,6.13,72436.8,-4.11,-34.95,-35.13,0,*5A
1488254772.39,59387,6.13,72442.5,-4.11,-34.95,-35.17,0,*5F
1488254773.66,59388,6.13,72446.0,-4.11,-34.77,-34.95,0,*57
1488254774.93,59389,6.13,72424.0,-4.11,-34.65,-34.59,0,*55
1488254776.22,59390,6.13,72428.3,-4.11,-34.65,-34.83,0,*5A
1488254777.49,59391,6.13,72442.5,-4.11,-34.77,-34.95,0,*5F
1488254778.73,59392,6.13,72426.0,-4.09,-34.95,-35.13,0,*56
1488254779.99,59393,6.13,72408.5,-4.11,-34.65,-34.77,0,*52
1488254781.26,59394,6.13,72374.3,-4.11,-34.65,-34.77,0,*55
1488254782.53,59395,6.13,72368.8,-4.11,-34.95,-35.17,0,*5C
1488254783.77,59396,6.13,72362.8,-4.09,-34.83,-35.01,0,*56
1488254785.04,59397,6.13,72380.8,-4.11,-34.83,-35.01,0,*5E
1488254786.28,59398,6.13,72384.0,-4.09,-34.77,-34.95,0,*5F
1488254787.52,59399,6.13,72388.8,-4.09,-34.77,-34.83,0,*59
1488254788.77,59400,6.13,72388.0,-4.05,-35.07,-35.29,0,*55
1488254790.03,59401,6.13,72396.3,-4.11,-35.35,-35.71,0,*5D
1488254791.26,59402,6.13,72400.8,-4.11,-35.29,-35.71,0,*53
1488254792.5,59403,6.13,72404.0,-4.11,-35.47,-35.71,0,*5A
1488254793.75,59404,6.13,72408.5,-4.11,-35.35,-35.71,0,*58
1488254795.01,59405,6.13,72410.0,-4.11,-35.35,-35.71,0,*59
1488254796.25,59406,6.13,72408.8,-4.11,-35.47,-35.77,0,*59
1488254797.51,59407,6.13,72408.5,-4.11,-35.53,-35.71,0,*5B
1488254798.75,59408,6.13,72412.8,-4.11,-35.59,-35.89,0,*59
1488254799.99,59409,6.13,72418.3,-4.11,-35.59,-35.89,0,*58
1488254801.23,59410,6.13,72420.8,-4.13,-35.35,-35.71,0,*5F
1488254802.46,59411,6.13,72416.0,-4.13,-35.01,-35.29,0,*54
1488254803.69,59412,6.13,72410.3,-4.13,-35.01,-35.29,0,*57
1488254804.92,59413,6.13,72408.3,-4.13,-35.13,-35.35,0,*58
1488254806.19,59414,6.13,72402.3,-4.15,-35.17,-35.41,0,*5E
1488254807.4,59415,6.13,72380.8,-4.13,-35.17,-35.59,0,*50
1488254808.64,59416,6.13,72380.0,-4.13,-35.35,-35.59,0,*53
1488254809.85,59417,6.13,72380.3,-4.13,-35.47,-35.71,0,*5D
1488254811.1,59418,6.13,72378.8,-4.13,-35.53,-35.89,0,*50
1488254812.34,59419,6.13,72388.0,-4.13,-35.53,-35.77,0,*50
1488254813.55,59420,6.13,72386.3,-4.13,-35.47,-35.71,0,*59
1488254814.79,59421,6.13,72398.5,-4.13,-35.35,-35.71,0,*5D
1488254816.08,59422,6.13,72398.3,-4.15,-35.41,-35.83,0,*56
1488254817.34,59423,6.13,72400.0,-4.15,-35.53,-35.77,0,*5F
1488254818.61,59424,6.13,72404.8,-4.15,-35.41,-35.77,0,*5B
1488254819.9,59425,6.13,72412.8,-4.15,-35.23,-35.53,0,*58
1488254821.12,59426,6.13,72412.3,-4.13,-35.29,-35.59,0,*5D
1488254822.41,59427,6.13,72408.8,-4.15,-35.23,-35.53,0,*5A
1488254823.7,59428,6.13,72418.8,-4.15,-35.65,-35.95,0,*5D
1488254824.99,59429,6.13,72414.8,-4.15,-35.65,-35.95,0,*5C
1488254826.26,59430,6.13,72410.3,-4.15,-35.65,-36.01,0,*5A
1488254827.52,59431,6.13,72406.3,-4.15,-35.65,-36.01,0,*5B
1488254828.75,59432,6.13,72400.3,-4.17,-35.77,-36.01,0,*59
1488254830.03,59433,6.13,72400.8,-4.15,-35.77,-35.95,0,*54
1488254831.28,59434,6.13,72398.3,-4.17,-35.77,-35.95,0,*51
1488254832.5,59435,6.13,72392.5,-4.17,-35.59,-35.77,0,*50
1488254833.75,59436,6.13,72388.3,-4.17,-35.35,-35.77,0,*59
1488254834.99,59437,6.13,72392.8,-4.17,-35.41,-35.77,0,*5B
1488254836.25,59438,6.13,72410.3,-4.17,-35.35,-35.65,0,*54
1488254837.5,59439,6.13,72406.5,-4.17,-35.53,-35.65,0,*55
1488254838.77,59440,6.13,72396.5,-4.17,-35.35,-35.53,0,*5E
1488254840.0,59441,6.13,72388.3,-4.19,-35.59,-35.71,0,*5B
1488254841.24,59442,6.13,72404.5,-4.19,-35.59,-35.71,0,*58
1488254842.5,59443,6.13,72410.5,-4.17,-35.41,-35.65,0,*5B
1488254843.74,59444,6.13,72418.3,-4.19,-35.47,-35.71,0,*51
1488254845.0,59445,6.13,72414.8,-4.19,-35.59,-35.83,0,*52
1488254846.29,59446,6.13,72404.3,-4.19,-35.65,-35.83,0,*5E
1488254847.51,59447,6.13,72396.5,-4.17,-35.59,-36.01,0,*57
1488254848.78,59448,6.13,72394.8,-4.19,-35.47,-35.83,0,*50
1488254850.02,59449,6.13,72402.3,-4.19,-35.29,-35.71,0,*54
1488254851.28,59450,6.13,72354.3,-4.19,-35.41,-35.59,0,*58
1488254852.5,59451,6.13,72354.8,-4.21,-35.47,-35.77,0,*58
1488254853.76,59452,6.13,72366.3,-4.21,-35.35,-35.65,0,*5D
1488254855.02,59453,6.13,72368.5,-4.21,-35.35,-35.53,0,*59
1488254856.26,59454,6.13,72374.3,-4.19,-35.29,-35.59,0,*52
1488254857.51,59455,6.13,72372.0,-4.19,-35.29,-35.47,0,*5C
1488254858.73,59456,6.13,72380.8,-4.21,-35.13,-35.29,0,*55
1488254859.95,59457,6.13,72360.8,-4.21,-35.01,-35.01,0,*5D
1488254861.2,59458,6.13,72366.3,-4.19,-34.59,-34.59,0,*59
1488254862.47,59459,6.13,72376.3,-4.19,-35.07,-35.13,0,*5D
1488254863.76,59460,6.13,72372.8,-4.19,-34.95,-35.07,0,*58
1488254865.05,59461,6.13,72398.0,-4.19,-35.07,-35.07,0,*53
1488254866.3,59462,6.13,72404.3,-4.19,-34.77,-34.77,0,*50
1488254867.58,59463,6.13,72406.8,-4.19,-34.71,-34.95,0,*5B
1488254868.85,59464,6.13,72406.0,-4.17,-34.53,-34.65,0,*5D
1488254870.1,59465,6.13,72396.8,-4.19,-34.59,-34.71,0,*5D
1488254871.35,59466,6.13,72398.8,-4.17,-34.47,-34.65,0,*5A
1488254872.6,59467,6.13,72404.5,-4.17,-34.71,-34.83,0,*56
1488254873.86,59468,6.13,72408.8,-4.17,-34.65,-34.83,0,*5C
1488254875.13,59469,6.13,72414.0,-4.19,-34.89,-35.07,0,*5C
1488254876.4,59470,6.13,72406.8,-4.19,-35.07,-35.13,0,*56
1488254877.67,59471,6.13,72410.3,-4.19,-35.07,-35.13,0,*57
1488254878.91,59472,6.13,72414.3,-4.15,-34.89,-35.01,0,*5C
1488254880.15,59473,6.13,72420.0,-4.17,-35.01,-35.07,0,*58
1488254881.37,59474,6.13,72426.8,-4.17,-34.89,-35.17,0,*5F
1488254882.61,59475,6.13,72430.0,-4.15,-34.89,-35.01,0,*5B
1488254883.9,59476,6.13,72436.8,-4.15,-35.07,-35.23,0,*5F
1488254885.19,59477,6.13,72438.3,-4.15,-35.23,-35.41,0,*5C
1488254886.44,59478,6.13,72438.3,-4.17,-35.07,-35.17,0,*54
1488254887.67,59479,6.13,72442.3,-4.17,-35.17,-35.41,0,*57
1488254888.94,59480,6.13,72444.0,-4.17,-35.07,-35.23,0,*54
1488254890.21,59481,6.13,72442.0,-4.15,-35.17,-35.41,0,*52
1488254891.44,59482,6.13,72430.8,-4.17,-35.17,-35.35,0,*50
1488254892.71,59483,6.13,72426.0,-4.17,-35.07,-35.23,0,*57
1488254893.95,59484,6.13,72418.3,-4.17,-35.07,-35.17,0,*57
1488254895.2,59485,6.13,72426.5,-4.17,-34.71,-34.83,0,*5A
1488254896.46,59486,6.13,72444.8,-4.15,-34.89,-35.07,0,*51
1488254897.73,59487,6.13,72446.0,-4.17,-35.23,-35.53,0,*52
1488254898.98,59488,6.13,72434.3,-4.19,-35.41,-35.59,0,*5D
1488254900.22,59489,6.13,72430.5,-4.17,-35.17,-35.35,0,*5B
1488254901.49,59490,6.13,72420.8,-4.19,-35.07,-35.13,0,*58
1488254902.74,59491,6.13,72420.3,-4.17,-35.01,-35.07,0,*54
1488254904.01,59492,6.13,72408.8,-4.17,-34.83,-34.83,0,*51
1488254905.23,59493,6.13,72398.8,-4.17,-35.01,-35.01,0,*50
1488254906.47,59494,6.13,72398.0,-4.17,-35.07,-35.17,0,*56
1488254907.71,59495,6.13,72394.5,-4.17,-35.17,-35.23,0,*51
1488254908.98,59496,6.13,72394.0,-4.17,-35.07,-35.35,0,*54